Miscellaneous Local Product
Issued by NWS Hastings, NE

Home | Current Version | Previous Version | Graphics & Text | Print | Product List | Glossary On
Versions: 1 2 3 4 5 6 7 8 9 10 11 12 13 14 15 16 17 18 19 20 21 22 23 24 25 26 27 28 29 30 31 32 33 34 35 36 37 38 39 40 41 42 43 44 45 46 47 48 49 50
706
AXUS43 KGID 272102
MISGRI

GID CWA HOURLY WEATHER ROUNDUP
NATIONAL WEATHER SERVICE HASTINGS NE
400 PM CDT FRI MAY 27 2016

NOTE: "FAIR" INDICATES FEW OR NO CLOUDS BELOW 12,000 FEET WITH NO
SIGNIFICANT WEATHER AND/OR OBSTRUCTIONS TO VISIBILITY.

...SOUTH CENTRAL NEBRASKA...

CITY           SKY/WX    TMP DP  RH WIND       PRES   REMARKS
GRAND ISLAND   CLOUDY    69  57  65 E8        29.73F
HASTINGS       CLOUDY    67  57  70 E8        29.72F
KEARNEY        CLOUDY    66  55  68 E7        29.74F
ORD            CLOUDY    72  57  59 N6        29.73F
YORK           MOSUNNY   72  57  60 SE10      29.72F
AURORA         PTSUNNY   72  57  60 E6        29.72F
LEXINGTON      CLOUDY    63  57  80 E7        29.75F
HOLDREGE       CLOUDY    64  57  78 E9        29.73F
HEBRON         CLOUDY    71  62  71 NE7       29.71S

...NEBRASKA PANHANDLE...

CITY           SKY/WX    TMP DP  RH WIND       PRES   REMARKS
CHADRON        CLOUDY    59  48  67 SE5       29.87F
ALLIANCE       PTSUNNY   58  49  72 N12       29.87S
SCOTTSBLUFF    CLOUDY    59  44  57 SE7       29.89F
SIDNEY         CLOUDY    57  46  66 NE15      29.88F

...WESTERN AND NORTH CENTRAL NEBRASKA...

CITY           SKY/WX    TMP DP  RH WIND       PRES   REMARKS
VALENTINE      CLOUDY    67  48  50 NE13      29.81F
AINSWORTH      CLOUDY    64  52  65 N9G16     29.80F
ONEILL         MOSUNNY   70  59  68 NE9       29.77F
BROKEN BOW     PTSUNNY   66  56  70 NE7       29.76F
IMPERIAL       LGT RAIN  59  54  83 N9        29.78F
NORTH PLATTE   MOSUNNY   66  54  65 NE17      29.76F
MCCOOK         CLOUDY    63  55  75 E14       29.73F

...EASTERN NEBRASKA...

CITY           SKY/WX    TMP DP  RH WIND       PRES   REMARKS
NORFOLK        SUNNY     74  56  53 CALM      29.72F
SO SIOUX CITY  PTSUNNY   78  59  51 CALM      29.73F
TEKAMAH        SUNNY     79  55  43 E5        29.71F
COLUMBUS       SUNNY     75  54  46 N5        29.72F
ALBION         CLOUDY    73  55  52 N3        29.73F
OMAHA EPPLEY   PTSUNNY   78  60  53 NE7       29.72F
OFFUTT AFB     SUNNY     76  61  60 E5        29.71F
MILLARD        MOSUNNY   77  59  53 CALM      29.72F
LINCOLN        CLOUDY    76  60  57 NE7       29.71F
NEBRASKA CITY  CLOUDY    73  63  71 E9        29.73F
BEATRICE       CLOUDY    75  62  64 E10       29.71F
FALLS CITY     MOSUNNY   76  65  68 E8        29.71F

...NORTHERN KANSAS...

CITY           SKY/WX    TMP DP  RH WIND       PRES   REMARKS
GOODLAND       CLOUDY    61  55  81 NE15G23   29.74S
HILL CITY      CLOUDY    63  58  83 NE12      29.71F
NORTON         CLOUDY    63  55  77 E10       29.72F
PHILLIPSBURG   CLOUDY    64  63  94 NE9       29.71F
SMITH CENTER   CLOUDY    64  59  82 NE9       29.71F
BELOIT         MOSUNNY   63  50  63 SE10      29.65F
HAYS           PTSUNNY   45 N/A N/A E8        29.66F
RUSSELL        PTSUNNY   73  64  73 NE7       29.63F
CONCORDIA      PTSUNNY   76  64  66 S10       29.67F
SALINA         PTSUNNY   77  63  61 SE10      29.65F
TOPEKA         CLOUDY    74  66  76 SE7       29.71F



USA.gov is the U.S. government's official web portal to all federal, state and local government web resources and services.